STARLINK-11234, 60400

Orbit data source: Space-Track

STARLINK-11234, 60400 is a payload satellite owned by SpaceX/Seattle (US) in LEO that was launched on Sat, 10 Aug 2024 UTC via an FALCON 9 launch vehicle from the Air Force Eastern Test Range (AFETR). Payloads include a variety of satellites, spacecraft, and rockets equipped with specific instruments for various scientific and technological missions. These include communications satellites like Starlink; space stations such as the ISS; scientific satellites like the Hubble; Earth observation satellites from companies like Planet Labs, Umbra, and HawkEye 360; GPS; miniature CubeSats for education and research; and military/defense satellites.

Loading next visibility...
STARLINK-11234 details
Identifier
60400, 2024-141C
Orbit
LEO
Last TLE update1 day ago
Origin
Flag of USSpaceX/Seattle (US)
ManufacturerSpaceX/Seattle
MissionOperational spacecraft
Bus & MotorSTARLINK V2M, Unknown motor
Mass730 kg wet, ~700 kg dry
Launch date (UTC)
2024-08-10 (5 months ago)
Launch vehicle
FALCON 9
Launch site
Air Force Eastern Test Range (AFETR)
Object type
Payload
Rocket body
Debris
Shape & HBRUnknown
Radar Cross SectionLarge (>1 m²)

Expand to show TLE details & history

TLE from 1 day ago
0 STARLINK-11234
1 60400U 24141C   25014.22256917  .00000793  00000-0  11411-4 0  9999
2 60400  53.1582 353.8775 0001790  71.5185 288.6028 15.69714298 25810
Epoch: 2025-01-14T05:20Z
Definitive object data (Epoch: 2025-01-14T05:20:29.976Z)
Latitude0.00004°
Longitude159.82027°
Altitude360.245 km
Speed7.695 km/s
True Right ascension23h 35m 30s
True Declination0° 00' 00"
Sunlit
Object was in daylight at TLE epoch
Visualization TLE readout
Latitude-33.43387°
Longitude125.05547°
Altitude370.768 km
Speed7.687 km/s
Apparent Right ascension20h 35m 10s
Apparent Declination-36° 55' 17"
Sunlit
Object is in daylight
Visualization observer readout
Local Sidereal Time07:47:34
Azimuth284.043° WNW
Elevation-80.218°
Doppler factor1
Orbital elements
Apogee altitude361.182 km
Perigee altitude358.769 km
Semi-major axis6,738.112 km
Eccentricity0.000179
Inclination53.1582°
RAAN353.8775°
Arg. of periapsis71.5185°
True anomaly288.58336°
Mean anomaly288.6028°
Eccentric anomaly288.59308°
Mean motion3.92406 °/min
BSTAR0.000011411
Orbital period91.74 mins
Loading maneuver chart data...
Loading historical data...
Loading historical data...
Loading historical data...
Loading historical data...
Loading historical data...
Loading historical data...
Loading historical data...

STARLINK-11234 Visibility forecast

Observer location: undefined°, undefined

Span
Click to sort rows by Start time (UTC) header in descending order
Start Az.
Max El. time (UTC)
Max El. Az.
Max El.
End time (UTC)
End Az.
4 mins2025-01-15 07:49:05.156Z316.18° NNW2025-01-15 07:51:05.156Z45.961° ENE43.58°2025-01-15 07:53:05.156Z122.234° SE
4 mins2025-01-16 06:43:05.156Z346.76° N2025-01-16 06:44:05.156Z14.273° NNE22.9°2025-01-16 06:47:05.156Z91.532° ESE
|